STARLINK-32222 (60435 NORAD) Tracking and Keplerian Element Data

This shows tracking and keplerian element data for the satellite.

Feedback or suggestion? Click here.




ElementValue
Catalog60435
NameSTARLINK-32222
Epoch Orbit1079
Epoch Day286.86533367
Epoch Year2024
RAAN79.1303
Inclination53.1612
Eccentricity0.0001192
Argument of Perigee71.4895
Mean Anonmoly288.6235
Mean Motion15.30193371
Decay Rate7.44E-06
L11 60435U 24144L 24286.86533367 .00000744 00000+0 37233-4 0 9992
L22 60435 53.1612 79.1303 0001192 71.4895 288.6235 15.30193371 10792



Live tracking and technical data element details for STARLINK-32222 (NORAD 60435). STARLINK-32222 can be tracked NOW for your location showing map with azimuth and elevation plus other details from your city location.







IsCatalogInMostPopularTable: catalog: 60435, numindb: 7
Update: records affected: 1



GetName: 60435 STARLINK-32222

Hit Count: updated at: Wed, 04 Dec 2024 18:35:39 GMT